Regional Weather Roundup
Issued by NWS

Home | Current Version | Previous Version | Graphics & Text | Print | Product List | Glossary On
Versions: 1 2 3 4 5 6 7 8 9 10 11 12 13 14 15 16 17 18 19 20 21 22 23 24 25 26 27 28 29 30 31 32 33 34 35 36 37 38 39 40 41 42 43 44 45 46 47 48 49 50
778
ASUS44 KJAN 280903
RWRMS

MISSISSIPPI HOURLY WEATHER ROUNDUP
NATIONAL WEATHER SERVICE JACKSON MS
300 AM CST WED JAN 28 2015

NOTE: "FAIR: INDICATES FEW OR NO CLOUDS BELOW 12,000 FEET WITH NO
SIGNIFICANT WEATHER AND/OR OBSTRUCTIONS TO VISIBILITY.

MSZ001>002-007>008-010>013-018>021-025>028-034>036-281000-
NORTHWEST MISSISSIPPI

CITY           SKY/WX    TMP DP  RH WIND       PRES   REMARKS
CLARKSDALE     FAIR      37  34  87 E6        30.24R WCI  33
CLEVELAND      FAIR      40  37  87 E6        30.22R
GREENWOOD      FAIR      40  33  76 E7        30.21S
GREENVILLE     CLEAR     42  36  79 E7        30.20S
GRENADA        FAIR      37  32  81 E3        30.23S
OLIVE BRANCH   CLEAR     34  34 100 E6        30.24S WCI  29
OXFORD         FAIR      30  28  93 CALM      30.25R
TUNICA         SUNNY     37  32  81 CALM      30.24R
$$

MSZ003>006-009-014>017-022>024-029>033-037>039-281000-
NORTHEAST MISSISSIPPI

CITY           SKY/WX    TMP DP  RH WIND       PRES   REMARKS
COLUMBUS AFB   CLEAR     31  29  92 CALM      30.24R
CORINTH        FAIR      30  28  93 CALM      30.24S
GOLDN TRIANGLE CLEAR     36  30  80 CALM      30.22S
STARKVILLE     FAIR      32  32 100 CALM      30.23S
TUPELO         CLEAR     34  29  82 CALM      30.24S
$$

MSZ040-058-281000-
CENTRAL MISSISSIPPI

CITY           SKY/WX    TMP DP  RH WIND       PRES   REMARKS
JACKSON INTL   CLEAR     44  35  70 NE3       30.21R
JACKSON HAWKNS CLEAR     45  35  68 E7        30.21R
MERIDIAN KEY   CLEAR     35  31  85 N8        30.22R WCI  29
MERIDIAN NAS   CLEAR     36  32  85 CALM      30.23R
RAYMOND        FAIR      34  30  86 MISG      30.21R
VICKSBURG      CLEAR     38  35  89 SE3       30.21R
$$

MSZ059>079-281000-
SOUTH MISSISSIPPI

CITY           SKY/WX    TMP DP  RH WIND       PRES   REMARKS
BROOKHAVEN       N/A     37  36  93 CALM      30.22R
HATTIESBURG    CLEAR     38  35  89 CALM      30.22R
MCCOMB         CLEAR     48  36  63 NE5       30.20R
NATCHEZ        CLEAR     50  36  57 E5        30.19S
PINE BELT      CLEAR     43  34  70 N3        30.22R
$$

MSZ080>082-281000-
COASTAL MISSISSIPPI

CITY           SKY/WX    TMP DP  RH WIND       PRES   REMARKS
BILOXI         CLEAR     44  36  72 NE2       30.19R
PASCAGOULA     CLEAR     39  37  92 CALM      30.20R
GULFPORT       CLEAR     45  36  70 N3        30.20R
$$



USA.gov is the U.S. government's official web portal to all federal, state and local government web resources and services.